Location: Brunsen
(51.8651°N, 9.8610°E)
Time: 11:05:56
(UTC+00:00)

Cosmos 1455 - Pass Details

Date: 23 May 2024
Orbit: 445 x 459 km, 82.5° (Epoch: 23 June)

Event Time Altitude Azimuth Distance (km) Brightness Sun altitude
Rises 00:25:25 0° 353° (N) 2,462 6.9 -16.0°
Reaches altitude 10° 00:27:32 10° 358° (N) 1,586 5.8 -15.9°
Maximum altitude 00:30:55 53° 76° (ENE) 560 2.5 -15.7°
Enters shadow 00:32:57 22° 147° (SSE) 1,050 3.4 -15.6°
